Location: Melbourne
(37.8666°S, 145.1333°E)
Time: 03:51:08
(UTC+11:00)

Iridium 72 - Visible Passes

Search period start: 19 December 2017 00:00
Search period end: 29 December 2017 00:00
Orbit: 776 x 779 km, 86.4° (Epoch: 18 December)

Date Brightness Start Highest point End Pass type
(mag) Time Alt. Az. Time Alt. Az. Time Alt. Az.
19 Dec 7.1 04:18:52 10° SSE 04:23:43 35° E 04:28:30 10° NNE visible
20 Dec 8.0 03:46:12 10° SSE 03:49:57 19° ESE 03:53:41 10° ENE visible
21 Dec 5.5 04:52:08 10° S 04:57:27 84° W 05:02:41 10° N visible
22 Dec 6.3 04:18:44 10° S 04:23:54 52° E 04:29:00 10° NNE visible
23 Dec 7.4 03:45:43 10° SSE 03:50:14 28° E 03:54:41 10° NE visible
24 Dec 8.1 03:13:24 10° SE 03:16:25 15° ESE 03:19:25 10° ENE visible
24 Dec 5.7 04:52:20 10° S 04:57:32 57° W 05:02:38 10° NNW visible
25 Dec 5.7 04:18:44 10° S 04:24:03 77° E 04:29:17 10° N visible
26 Dec 6.7 03:45:28 10° SSE 03:50:27 40° E 03:55:22 10° NNE visible
27 Dec 7.7 03:12:40 10° SSE 03:16:44 22° ESE 03:20:44 10° NE visible
27 Dec 6.1 04:52:40 10° SSW 04:57:33 39° W 05:02:22 10° NNW visible
28 Dec 8.2 02:41:04 10° SE 02:42:51 12° ESE 02:44:38 10° E visible
28 Dec 5.5 04:18:52 10° S 04:24:09 74° W 04:28:31 15° N visible
